Location: 相模原市立博物館
(35.5593°N, 139.3931°E)
Time: 03:45:29
(UTC+09:00)

ISS - Pass Details

Date: 04 August 2021
Orbit: 417 x 423 km, 51.6° (Epoch: 26 September)

Event Time Altitude Azimuth Distance (km) Brightness Sun altitude
Rises 19:19:50 0° 313° (NW) 2,343 1.8 -7.5°
Reaches altitude 10° 19:21:56 10° 315° (NW) 1,481 0.4 -7.9°
Maximum altitude 19:25:15 75° 40° (NE) 430 -3.8 -8.5°
Enters shadow 19:28:13 12° 127° (SE) 1,338 -1.9 -9.0°
